Overview Statistics Trail Chart Weather Telemetry Raw packets
 

This is the latest recevied weather packets stored in our database for station/object OE6ACM-10. If no packets are shown the sender has not sent any weather packets the latest 10 day(s).

<< 9 10 11 12 13 14 15 >>
Time Temp. Humidity Pressure Rain* Wind** Luminosity Snow
1788622489 33.33° C 100% 931.2 hPa - - - -
1788622189 31.67° C 100% 931.2 hPa - - - -
1788621889 30° C 100% 931.4 hPa - - - -
1788621589 30.56° C 100% 931.5 hPa - - - -
1788621289 32.78° C 100% 931.4 hPa - - - -
1788620989 35° C 100% 931.5 hPa - - - -
1788620711 35° C 100% 931.4 hPa - - - -
1788620389 34.44° C 100% 931.3 hPa - - - -
1788620089 32.22° C 100% 931.5 hPa - - - -
1788619789 31.67° C 100% 931.5 hPa - - - -
1788619489 31.11° C 100% 931.4 hPa - - - -
1788619189 28.33° C 100% 931.5 hPa - - - -
1788618889 28.33° C 100% 931.5 hPa - - - -
1788618589 28.89° C 100% 931.4 hPa - - - -
1788618289 28.89° C 100% 931.4 hPa - - - -
1788617989 28.89° C 100% 931.5 hPa - - - -
1788617689 29.44° C 100% 931.5 hPa - - - -
1788617389 31.11° C 100% 931.4 hPa - - - -
1788617089 33.89° C 100% 931.4 hPa - - - -
1788616789 32.78° C 100% 931.3 hPa - - - -
1788616489 31.67° C 100% 931.2 hPa - - - -
1788616189 28.89° C 100% 931.5 hPa - - - -
1788615889 30° C 100% 931.5 hPa - - - -
1788615589 28.33° C 100% 931.7 hPa - - - -
1788615289 28.33° C 100% 931.4 hPa - - - -

* Rain since midnight (hover to see other rain measurements)
** Current wind speed in m/s (hover to see current wind gust speed)